EWG48CR LEZL-EDDL

Flight info

Callsign EWG48CR
Flight time N/A
Altitude 38000
Route BUDIT M445 SOPET M985 EBROX Z26 LATRO N861 OLOXO DCT OKABI DCT TOU DCT ADABI DCT BOKNO DCT DIBES DCT VIQAQ DCT TSU DCT OQQAL DCT RANUX/N0449F370 DCT VALEK DCT LUTAX DCT DIK/N0425F230 N853 ARCKY T853 NVO T857 BIKMU BIKMU1A
Aircraft A319/M-SDE3FGHIRWY/LB1

Departure

Time 2026-04-24 19:22
Airport Seville Airport (LEZL)

Arrival

Time N/A
Airport Düsseldorf Airport (EDDL)
Time Latitude Longitude Altitude Speed Heading
2026-04-24 18:54 37.42262 -5.89902 94 ft 0 kts 344°
2026-04-24 19:09 37.42255 -5.89900 93 ft 4 kts 343°
2026-04-24 19:09 37.42229 -5.89889 94 ft 4 kts 336°
2026-04-24 19:10 37.42206 -5.89873 94 ft 4 kts 319°
2026-04-24 19:10 37.42193 -5.89851 93 ft 4 kts 254°
2026-04-24 19:10 37.42194 -5.89844 93 ft 1 kts 225°
2026-04-24 19:14 37.42194 -5.89845 93 ft 0 kts 225°
2026-04-24 19:15 37.42175 -5.89868 94 ft 8 kts 225°
2026-04-24 19:15 37.42127 -5.89925 96 ft 10 kts 212°
2026-04-24 19:15 37.42059 -5.89913 96 ft 11 kts 159°
2026-04-24 19:15 37.41989 -5.89859 95 ft 13 kts 121°
2026-04-24 19:16 37.41982 -5.89612 93 ft 18 kts 90°
2026-04-24 19:16 37.41982 -5.89435 92 ft 21 kts 90°
2026-04-24 19:16 37.41983 -5.89257 95 ft 19 kts 89°
2026-04-24 19:17 37.41983 -5.89096 98 ft 18 kts 90°
2026-04-24 19:17 37.41984 -5.88930 100 ft 20 kts 90°
2026-04-24 19:17 37.41985 -5.88765 106 ft 17 kts 89°
2026-04-24 19:17 37.41985 -5.88631 108 ft 15 kts 90°
2026-04-24 19:18 37.41986 -5.88494 107 ft 17 kts 90°
2026-04-24 19:18 37.41986 -5.88338 108 ft 19 kts 90°
2026-04-24 19:18 37.41987 -5.88172 109 ft 19 kts 89°
2026-04-24 19:18 37.41988 -5.87996 105 ft 21 kts 89°
2026-04-24 19:19 37.41987 -5.87807 105 ft 21 kts 90°
2026-04-24 19:19 37.41988 -5.87626 106 ft 20 kts 90°
2026-04-24 19:19 37.41972 -5.87502 106 ft 11 kts 113°
2026-04-24 19:19 37.41934 -5.87441 106 ft 8 kts 141°
2026-04-24 19:20 37.41882 -5.87426 107 ft 7 kts 182°
2026-04-24 19:20 37.41834 -5.87454 108 ft 8 kts 221°
2026-04-24 19:20 37.41800 -5.87510 109 ft 8 kts 243°
2026-04-24 19:20 37.41800 -5.87565 108 ft 0 kts 271°
2026-04-24 19:21 37.41800 -5.87571 108 ft 3 kts 271°
2026-04-24 19:21 37.41800 -5.87789 106 ft 60 kts 269°
2026-04-24 19:21 37.41795 -5.88612 105 ft 126 kts 269°
2026-04-24 19:22 37.41790 -5.89443 116 ft 158 kts 268°
2026-04-24 19:22 37.41806 -5.91242 974 ft 153 kts 268°
2026-04-24 19:22 37.41966 -5.92587 1502 ft 168 kts 294°
2026-04-24 19:22 37.42925 -5.93612 1820 ft 196 kts 324°
2026-04-24 19:23 37.44071 -5.94730 2140 ft 222 kts 315°
2026-04-24 19:23 37.45274 -5.96101 2672 ft 244 kts 315°
2026-04-24 19:23 37.46547 -5.97618 3420 ft 255 kts 316°
2026-04-24 19:23 37.47828 -5.99158 4451 ft 257 kts 316°
2026-04-24 19:24 37.49147 -6.00740 5287 ft 266 kts 318°
2026-04-24 19:24 37.50484 -6.02393 6180 ft 272 kts 317°
2026-04-24 19:24 37.51831 -6.04066 6977 ft 280 kts 318°
2026-04-24 19:24 37.53273 -6.05713 7919 ft 279 kts 327°
2026-04-24 19:25 37.55056 -6.06584 8882 ft 276 kts 354°
2026-04-24 19:25 37.56992 -6.06549 9700 ft 282 kts
2026-04-24 19:25 37.58907 -6.05886 10307 ft 296 kts 24°
2026-04-24 19:25 37.60581 -6.04268 10745 ft 309 kts 55°
2026-04-24 19:26 37.61496 -6.01798 11417 ft 319 kts 75°
2026-04-24 19:26 37.62045 -5.98988 11706 ft 341 kts 76°
2026-04-24 19:26 37.62668 -5.96005 11930 ft 361 kts 75°
2026-04-24 19:26 37.63336 -5.92907 12512 ft 369 kts 75°
2026-04-24 19:27 37.64012 -5.89760 13204 ft 374 kts 75°
2026-04-24 19:27 37.64685 -5.86571 13918 ft 378 kts 76°
2026-04-24 19:27 37.65348 -5.83350 14574 ft 380 kts 76°
2026-04-24 19:27 37.66006 -5.80106 15227 ft 383 kts 76°
2026-04-24 19:28 37.66662 -5.76836 15905 ft 385 kts 75°
2026-04-24 19:28 37.67320 -5.73541 16504 ft 390 kts 75°
2026-04-24 19:28 37.67981 -5.70213 17151 ft 392 kts 76°
2026-04-24 19:28 37.68647 -5.66861 17795 ft 395 kts 76°
2026-04-24 19:29 37.70000 -5.60078 18919 ft 402 kts 76°
2026-04-24 19:29 37.70684 -5.56648 19449 ft 404 kts 76°
2026-04-24 19:29 37.71369 -5.53197 19957 ft 407 kts 76°
2026-04-24 19:30 37.72059 -5.49722 20465 ft 409 kts 77°
2026-04-24 19:30 37.72752 -5.46225 20968 ft 412 kts 77°
2026-04-24 19:30 37.73448 -5.42706 21453 ft 414 kts 77°
2026-04-24 19:30 37.74149 -5.39168 21932 ft 417 kts 77°
2026-04-24 19:31 37.74616 -5.36811 22244 ft 418 kts 77°
2026-04-24 19:31 37.75322 -5.33231 22699 ft 421 kts 77°
2026-04-24 19:31 37.76257 -5.28453 23265 ft 425 kts 77°
2026-04-24 19:31 37.76966 -5.24813 23679 ft 428 kts 77°
2026-04-24 19:32 37.77681 -5.21150 24037 ft 431 kts 77°
2026-04-24 19:32 37.78399 -5.17470 24404 ft 433 kts 77°
2026-04-24 19:32 37.78884 -5.14967 24648 ft 434 kts 77°
2026-04-24 19:32 37.79597 -5.11296 24997 ft 436 kts 77°
2026-04-24 19:33 37.80324 -5.07565 25344 ft 438 kts 77°
2026-04-24 19:33 37.81057 -5.03817 25687 ft 440 kts 77°
2026-04-24 19:33 37.81791 -5.00056 26025 ft 442 kts 77°
2026-04-24 19:33 37.82526 -4.96265 26352 ft 444 kts 77°
2026-04-24 19:34 37.83259 -4.92464 26684 ft 446 kts 77°
2026-04-24 19:34 37.83990 -4.88653 27020 ft 447 kts 77°
2026-04-24 19:34 37.84659 -4.84809 27326 ft 448 kts 82°
2026-04-24 19:34 37.84969 -4.80885 27645 ft 449 kts 86°
2026-04-24 19:35 37.85210 -4.76934 27953 ft 451 kts 86°
2026-04-24 19:35 37.85454 -4.72975 28257 ft 453 kts 86°
2026-04-24 19:35 37.85700 -4.69007 28659 ft 452 kts 86°
2026-04-24 19:35 37.85945 -4.65052 29123 ft 450 kts 86°
2026-04-24 19:36 37.86189 -4.61111 29581 ft 449 kts 86°
2026-04-24 19:36 37.86430 -4.57180 30035 ft 447 kts 86°
2026-04-24 19:36 37.86665 -4.53266 30439 ft 446 kts 87°
2026-04-24 19:36 37.86896 -4.49357 30813 ft 444 kts 87°
2026-04-24 19:37 37.87127 -4.45467 31244 ft 442 kts 87°
2026-04-24 19:37 37.87354 -4.41594 31647 ft 441 kts 87°
2026-04-24 19:37 37.87581 -4.37733 32042 ft 439 kts 87°
2026-04-24 19:37 37.87810 -4.33880 32440 ft 438 kts 88°
2026-04-24 19:38 37.88040 -4.30044 32828 ft 437 kts 88°
2026-04-24 19:38 37.88267 -4.26212 33232 ft 436 kts 88°
2026-04-24 19:38 37.88489 -4.22383 33641 ft 435 kts 88°
2026-04-24 19:38 37.88705 -4.18573 34042 ft 434 kts 88°
2026-04-24 19:39 37.88921 -4.14769 34375 ft 433 kts 88°
2026-04-24 19:39 37.89135 -4.10962 34671 ft 434 kts 88°
2026-04-24 19:39 37.89349 -4.07153 34956 ft 434 kts 88°
2026-04-24 19:39 37.89563 -4.03338 35230 ft 435 kts 88°
2026-04-24 19:40 37.89776 -3.99508 35500 ft 436 kts 88°
2026-04-24 19:40 37.89988 -3.95677 35759 ft 437 kts 88°
2026-04-24 19:40 37.90200 -3.91840 36005 ft 438 kts 88°
2026-04-24 19:40 37.90408 -3.88047 36248 ft 438 kts 88°
2026-04-24 19:41 37.90622 -3.84146 36493 ft 439 kts 88°
2026-04-24 19:41 37.90832 -3.80287 36716 ft 440 kts 88°
2026-04-24 19:41 37.91040 -3.76471 36909 ft 441 kts 88°
2026-04-24 19:41 37.91250 -3.72587 37126 ft 442 kts 88°
2026-04-24 19:42 37.91456 -3.68703 37352 ft 443 kts 88°
2026-04-24 19:42 37.91660 -3.64809 37563 ft 443 kts 88°
2026-04-24 19:42 37.91862 -3.60914 37780 ft 444 kts 87°
2026-04-24 19:42 37.92066 -3.57015 37994 ft 444 kts 87°
2026-04-24 19:43 37.92274 -3.53105 38090 ft 446 kts 87°
2026-04-24 19:43 37.92689 -3.45270 38103 ft 446 kts 87°
2026-04-24 19:44 37.93101 -3.37417 38101 ft 447 kts 87°
2026-04-24 19:44 37.93506 -3.29563 38100 ft 447 kts 88°
2026-04-24 19:45 37.93897 -3.21702 38103 ft 447 kts 88°
2026-04-24 19:45 37.94285 -3.13833 38107 ft 448 kts 88°
2026-04-24 19:46 37.94671 -3.05957 38111 ft 448 kts 88°
2026-04-24 19:46 37.95050 -2.98073 38105 ft 449 kts 88°
2026-04-24 19:47 37.95431 -2.90183 38112 ft 449 kts 88°
2026-04-24 19:47 37.95809 -2.82280 38120 ft 449 kts 88°
2026-04-24 19:48 37.96177 -2.74378 38139 ft 450 kts 88°
2026-04-24 19:48 37.96716 -2.62509 38134 ft 450 kts 88°
2026-04-24 19:49 37.97386 -2.54634 38147 ft 452 kts 77°
2026-04-24 19:49 37.99925 -2.47350 38144 ft 456 kts 57°
2026-04-24 19:50 38.08500 -2.35436 38145 ft 458 kts 48°
2026-04-24 19:51 38.15036 -2.26643 38138 ft 459 kts 48°
2026-04-24 19:52 38.21517 -2.17728 38171 ft 456 kts 54°
2026-04-24 19:52 38.25434 -2.11407 38182 ft 454 kts 53°
2026-04-24 19:53 38.29345 -2.05094 38179 ft 453 kts 54°
2026-04-24 19:54 38.35185 -1.95632 38178 ft 453 kts 54°
2026-04-24 19:54 38.39076 -1.89322 38168 ft 453 kts 54°
2026-04-24 19:55 38.42312 -1.84069 38165 ft 453 kts 54°
2026-04-24 19:55 38.46833 -1.76703 38161 ft 453 kts 54°
2026-04-24 19:56 38.50713 -1.70357 38162 ft 453 kts 54°
2026-04-24 19:56 38.54591 -1.64007 38160 ft 453 kts 54°
2026-04-24 19:57 38.58473 -1.57654 38158 ft 453 kts 54°
2026-04-24 19:57 38.62343 -1.51291 38138 ft 453 kts 54°
2026-04-24 19:58 38.66216 -1.44913 38128 ft 454 kts 54°
2026-04-24 19:58 38.70093 -1.38520 38132 ft 454 kts 54°
2026-04-24 19:59 38.73968 -1.32124 38130 ft 455 kts 54°
2026-04-24 19:59 38.77843 -1.25719 38140 ft 455 kts 54°
2026-04-24 20:00 38.81718 -1.19299 38134 ft 455 kts 54°
2026-04-24 20:00 38.85590 -1.12860 38137 ft 455 kts 54°
2026-04-24 20:01 38.89449 -1.06432 38142 ft 455 kts 54°
2026-04-24 20:01 38.93286 -1.00046 38145 ft 455 kts 54°
2026-04-24 20:02 38.96516 -0.94655 38150 ft 454 kts 54°
2026-04-24 20:02 39.00987 -0.87166 38151 ft 454 kts 54°
2026-04-24 20:03 39.04828 -0.80719 38154 ft 454 kts 54°
2026-04-24 20:03 39.09152 -0.74798 38140 ft 457 kts 40°
2026-04-24 20:04 39.14055 -0.69595 38136 ft 457 kts 41°
2026-04-24 20:04 39.18965 -0.64386 38134 ft 457 kts 41°
2026-04-24 20:05 39.23868 -0.59155 38132 ft 457 kts 41°
2026-04-24 20:05 39.28730 -0.53951 38134 ft 457 kts 40°
2026-04-24 20:06 39.33760 -0.48915 38146 ft 458 kts 38°
2026-04-24 20:06 39.38894 -0.44053 38143 ft 458 kts 38°
2026-04-24 20:07 39.43186 -0.39957 38143 ft 458 kts 38°
2026-04-24 20:07 39.49101 -0.34196 38145 ft 458 kts 39°
2026-04-24 20:08 39.54176 -0.29215 38142 ft 458 kts 39°
2026-04-24 20:08 39.59246 -0.24234 38146 ft 457 kts 39°
2026-04-24 20:09 39.64320 -0.19258 38156 ft 457 kts 39°
2026-04-24 20:09 39.69389 -0.14281 38158 ft 457 kts 39°
2026-04-24 20:10 39.74451 -0.09295 38156 ft 457 kts 39°
2026-04-24 20:10 39.79506 -0.04300 38158 ft 457 kts 39°
2026-04-24 20:11 39.84402 0.00946 38138 ft 455 kts 48°
2026-04-24 20:11 39.88728 0.06969 38143 ft 456 kts 48°
2026-04-24 20:12 39.93071 0.12998 38150 ft 457 kts 48°
2026-04-24 20:12 39.97420 0.19035 38152 ft 457 kts 48°
2026-04-24 20:13 40.01738 0.25047 38152 ft 457 kts 48°
2026-04-24 20:13 40.06081 0.31109 38160 ft 457 kts 48°
2026-04-24 20:14 40.10683 0.36787 38173 ft 457 kts 32°
2026-04-24 20:14 40.13562 0.38528 38163 ft 457 kts 16°
2026-04-24 20:14 40.16687 0.39200 38167 ft 456 kts
2026-04-24 20:15 40.23027 0.39317 38171 ft 456 kts
2026-04-24 20:15 40.29371 0.39431 38169 ft 455 kts
2026-04-24 20:16 40.35701 0.39560 38164 ft 455 kts
2026-04-24 20:16 40.42030 0.39685 38164 ft 455 kts
2026-04-24 20:17 40.48360 0.39809 38161 ft 455 kts
2026-04-24 20:17 40.57855 0.40002 38153 ft 455 kts
2026-04-24 20:18 40.64190 0.40129 38151 ft 455 kts
2026-04-24 20:18 40.70529 0.40254 38150 ft 456 kts
2026-04-24 20:19 40.76830 0.40376 38149 ft 456 kts
2026-04-24 20:19 40.83175 0.40504 38150 ft 456 kts
2026-04-24 20:20 40.89523 0.40631 38153 ft 456 kts
2026-04-24 20:20 40.94838 0.40732 38137 ft 456 kts
2026-04-24 20:21 41.01194 0.40863 38129 ft 457 kts
2026-04-24 20:21 41.07548 0.40991 38128 ft 457 kts
2026-04-24 20:22 41.13864 0.41122 38128 ft 457 kts
2026-04-24 20:22 41.20224 0.41250 38125 ft 457 kts
2026-04-24 20:23 41.26592 0.41374 38121 ft 458 kts
2026-04-24 20:23 41.32962 0.41502 38121 ft 458 kts
2026-04-24 20:24 41.39333 0.41636 38129 ft 458 kts
2026-04-24 20:24 41.45699 0.41769 38129 ft 458 kts
2026-04-24 20:25 41.52067 0.41901 38123 ft 458 kts
2026-04-24 20:25 41.58438 0.42024 38123 ft 457 kts
2026-04-24 20:26 41.64788 0.42150 38127 ft 456 kts
2026-04-24 20:26 41.71132 0.42283 38126 ft 456 kts
2026-04-24 20:27 41.77476 0.42416 38124 ft 455 kts
2026-04-24 20:27 41.83813 0.42551 38128 ft 455 kts
2026-04-24 20:28 41.90145 0.42682 38134 ft 455 kts
2026-04-24 20:28 41.96476 0.42809 38138 ft 455 kts
2026-04-24 20:29 42.02803 0.42928 38133 ft 455 kts
2026-04-24 20:29 42.09137 0.43065 38137 ft 455 kts
2026-04-24 20:30 42.15426 0.43201 38143 ft 455 kts
2026-04-24 20:30 42.21761 0.43338 38143 ft 455 kts
2026-04-24 20:31 42.28098 0.43474 38150 ft 455 kts
2026-04-24 20:31 42.34436 0.43600 38150 ft 456 kts
2026-04-24 20:32 42.40773 0.43731 38161 ft 456 kts
2026-04-24 20:32 42.47116 0.43869 38167 ft 456 kts
2026-04-24 20:33 42.53456 0.43996 38175 ft 456 kts
2026-04-24 20:33 42.59796 0.44129 38175 ft 455 kts
2026-04-24 20:34 42.66135 0.44261 38178 ft 455 kts 360°
2026-04-24 20:34 42.72427 0.44396 38180 ft 455 kts
2026-04-24 20:35 42.78756 0.44533 38174 ft 455 kts 360°
2026-04-24 20:35 42.85098 0.44668 38174 ft 455 kts
2026-04-24 20:36 42.91431 0.44801 38175 ft 455 kts
2026-04-24 20:36 42.97766 0.44935 38171 ft 455 kts
2026-04-24 20:37 43.04097 0.45072 38175 ft 455 kts 359°
2026-04-24 20:37 43.10435 0.45205 38169 ft 456 kts 360°
2026-04-24 20:38 43.16779 0.45347 38157 ft 456 kts 359°
2026-04-24 20:38 43.23125 0.45482 38157 ft 456 kts 359°
2026-04-24 20:39 43.29471 0.45608 38140 ft 456 kts 359°
2026-04-24 20:39 43.35820 0.45747 38137 ft 456 kts 359°
2026-04-24 20:40 43.42172 0.45893 38135 ft 456 kts 359°
2026-04-24 20:40 43.48516 0.46031 38141 ft 455 kts 359°
2026-04-24 20:41 43.54848 0.46166 38136 ft 454 kts 359°
2026-04-24 20:41 43.61161 0.46305 38131 ft 454 kts 360°
2026-04-24 20:42 43.67471 0.46448 38130 ft 453 kts 360°
2026-04-24 20:42 43.73729 0.46586 38128 ft 453 kts 360°
2026-04-24 20:43 43.80022 0.46726 38122 ft 452 kts 360°
2026-04-24 20:43 43.86312 0.46857 38121 ft 452 kts 359°
2026-04-24 20:44 43.92602 0.46996 38117 ft 452 kts 360°
2026-04-24 20:44 43.98899 0.47141 38115 ft 452 kts 359°
2026-04-24 20:45 44.05195 0.47282 38122 ft 453 kts 359°
2026-04-24 20:45 44.11495 0.47423 38121 ft 453 kts 359°
2026-04-24 20:46 44.17791 0.47557 38119 ft 453 kts 359°
2026-04-24 20:46 44.24091 0.47700 38124 ft 453 kts 359°
2026-04-24 20:47 44.30397 0.47835 38103 ft 453 kts 359°
2026-04-24 20:47 44.36700 0.47977 38102 ft 453 kts 359°
2026-04-24 20:48 44.43010 0.48121 38111 ft 453 kts 359°
2026-04-24 20:48 44.49315 0.48268 38108 ft 453 kts 359°
2026-04-24 20:49 44.55625 0.48412 38109 ft 454 kts 359°
2026-04-24 20:49 44.61942 0.48552 38113 ft 454 kts 359°
2026-04-24 20:50 44.68256 0.48690 38121 ft 454 kts 359°
2026-04-24 20:50 44.74528 0.48832 38122 ft 454 kts 359°
2026-04-24 20:51 44.80840 0.48974 38122 ft 454 kts 359°
2026-04-24 20:51 44.87148 0.49105 38122 ft 454 kts 359°
2026-04-24 20:52 44.93464 0.49247 38118 ft 454 kts 359°
2026-04-24 20:52 44.99777 0.49402 38123 ft 454 kts 359°
2026-04-24 20:53 45.06087 0.49552 38117 ft 453 kts 359°
2026-04-24 20:53 45.12391 0.49701 38117 ft 453 kts 359°
2026-04-24 20:54 45.18693 0.49846 38115 ft 453 kts 359°
2026-04-24 20:54 45.24996 0.49979 38118 ft 453 kts 359°
2026-04-24 20:55 45.31303 0.50118 38111 ft 453 kts 359°
2026-04-24 20:55 45.37612 0.50278 38107 ft 454 kts 359°
2026-04-24 20:56 45.43924 0.50435 38104 ft 454 kts 359°
2026-04-24 20:56 45.50243 0.50575 38100 ft 454 kts 359°
2026-04-24 20:57 45.56562 0.50714 38099 ft 454 kts 359°
2026-04-24 20:57 45.62880 0.50862 38105 ft 454 kts 359°
2026-04-24 20:58 45.69158 0.51015 38103 ft 454 kts 359°
2026-04-24 20:58 45.75479 0.51159 38114 ft 454 kts 359°
2026-04-24 20:59 45.81803 0.51304 38114 ft 454 kts 359°
2026-04-24 20:59 45.88129 0.51453 38113 ft 454 kts 359°
2026-04-24 21:00 45.94453 0.51601 38110 ft 454 kts 359°
2026-04-24 21:00 46.00776 0.51748 38116 ft 454 kts 358°
2026-04-24 21:01 46.07098 0.51901 38118 ft 454 kts 359°
2026-04-24 21:01 46.13375 0.52059 38121 ft 454 kts 359°
2026-04-24 21:02 46.19688 0.52215 38130 ft 454 kts 358°
2026-04-24 21:02 46.26000 0.52361 38130 ft 453 kts 358°
2026-04-24 21:03 46.32309 0.52504 38126 ft 453 kts 358°
2026-04-24 21:03 46.38610 0.52658 38135 ft 453 kts 359°
2026-04-24 21:04 46.44908 0.52815 38128 ft 453 kts 359°
2026-04-24 21:04 46.51203 0.52969 38130 ft 452 kts 359°
2026-04-24 21:05 46.57483 0.53554 38129 ft 455 kts
2026-04-24 21:05 46.63669 0.55570 38131 ft 455 kts 11°
2026-04-24 21:06 46.69842 0.57595 38130 ft 455 kts 11°
2026-04-24 21:06 46.76020 0.59632 38131 ft 455 kts 11°
2026-04-24 21:07 46.82191 0.61678 38134 ft 455 kts 11°
2026-04-24 21:07 46.88325 0.63717 38136 ft 455 kts 11°
2026-04-24 21:08 46.94494 0.65761 38131 ft 455 kts 11°
2026-04-24 21:08 47.00665 0.67813 38144 ft 455 kts 11°
2026-04-24 21:09 47.06622 0.70925 38137 ft 458 kts 27°
2026-04-24 21:09 47.12088 0.75761 38141 ft 459 kts 30°
2026-04-24 21:10 47.16660 0.79825 38143 ft 459 kts 29°
2026-04-24 21:10 47.22083 0.84658 38157 ft 458 kts 30°
2026-04-24 21:11 47.27520 0.89529 38160 ft 457 kts 30°
2026-04-24 21:11 47.32952 0.94394 38154 ft 456 kts 30°
2026-04-24 21:12 47.38369 0.99262 38161 ft 456 kts 30°
2026-04-24 21:12 47.43360 1.05013 38158 ft 458 kts 42°
2026-04-24 21:13 47.47964 1.11502 38156 ft 457 kts 42°
2026-04-24 21:13 47.52560 1.18006 38151 ft 457 kts 42°
2026-04-24 21:14 47.57153 1.24519 38150 ft 457 kts 42°
2026-04-24 21:14 47.61744 1.31026 38167 ft 456 kts 42°
2026-04-24 21:15 47.66314 1.37521 38166 ft 454 kts 42°
2026-04-24 21:15 47.70866 1.44020 38163 ft 453 kts 42°
2026-04-24 21:16 47.75376 1.50469 38162 ft 453 kts 42°
2026-04-24 21:16 47.79910 1.56965 38167 ft 452 kts 42°
2026-04-24 21:17 47.84436 1.63464 38183 ft 452 kts 42°
2026-04-24 21:17 47.88945 1.69966 38196 ft 451 kts 42°
2026-04-24 21:18 47.93442 1.76476 38192 ft 450 kts 42°
2026-04-24 21:18 47.97929 1.82984 38188 ft 450 kts 42°
2026-04-24 21:19 48.02411 1.89490 38177 ft 449 kts 42°
2026-04-24 21:19 48.06888 1.96008 38175 ft 449 kts 42°
2026-04-24 21:20 48.13587 2.05792 38174 ft 449 kts 42°
2026-04-24 21:21 48.18047 2.12329 38171 ft 449 kts 42°
2026-04-24 21:21 48.22507 2.18884 38178 ft 448 kts 43°
2026-04-24 21:22 48.26954 2.25453 38179 ft 448 kts 43°
2026-04-24 21:22 48.31402 2.32018 38180 ft 448 kts 43°
2026-04-24 21:23 48.35849 2.38582 38178 ft 448 kts 43°
2026-04-24 21:23 48.40283 2.45162 38177 ft 448 kts 43°
2026-04-24 21:24 48.44683 2.51718 38180 ft 448 kts 43°
2026-04-24 21:24 48.49112 2.58338 38185 ft 448 kts 43°
2026-04-24 21:25 48.53537 2.64949 38183 ft 448 kts 43°
2026-04-24 21:25 48.57960 2.71577 38178 ft 448 kts 43°
2026-04-24 21:26 48.62383 2.78224 38179 ft 448 kts 44°
2026-04-24 21:26 48.66803 2.84892 38185 ft 449 kts 44°
2026-04-24 21:27 48.71217 2.91565 38188 ft 449 kts 44°
2026-04-24 21:27 48.75625 2.98256 38189 ft 449 kts 44°
2026-04-24 21:28 48.80035 3.04961 38189 ft 449 kts 44°
2026-04-24 21:28 48.84437 3.11676 38179 ft 449 kts 44°
2026-04-24 21:29 48.88845 3.18417 38184 ft 450 kts 44°
2026-04-24 21:29 48.93254 3.25170 38184 ft 450 kts 44°
2026-04-24 21:30 48.97667 3.31942 38186 ft 450 kts 44°
2026-04-24 21:30 49.02077 3.38718 38185 ft 451 kts 44°
2026-04-24 21:31 49.06454 3.45476 38192 ft 451 kts 44°
2026-04-24 21:31 49.10857 3.52294 38194 ft 451 kts 45°
2026-04-24 21:32 49.15259 3.59132 38181 ft 452 kts 45°
2026-04-24 21:32 49.19668 3.66002 38176 ft 453 kts 45°
2026-04-24 21:33 49.24080 3.72894 38181 ft 454 kts 45°
2026-04-24 21:33 49.28496 3.79808 38184 ft 454 kts 45°
2026-04-24 21:34 49.32920 3.86747 38191 ft 455 kts 45°
2026-04-24 21:34 49.37308 3.93654 38197 ft 455 kts 45°
2026-04-24 21:35 49.41719 4.00621 38195 ft 455 kts 45°
2026-04-24 21:35 49.46132 4.07591 38201 ft 455 kts 45°
2026-04-24 21:36 49.50543 4.14584 38199 ft 456 kts 45°
2026-04-24 21:36 49.54955 4.21602 38199 ft 456 kts 45°
2026-04-24 21:37 49.59360 4.28637 38195 ft 456 kts 45°
2026-04-24 21:37 49.63763 4.35682 38203 ft 456 kts 45°
2026-04-24 21:38 49.68161 4.42741 38216 ft 456 kts 45°
2026-04-24 21:38 49.72560 4.49811 38215 ft 456 kts 45°
2026-04-24 21:39 49.76951 4.56889 38184 ft 457 kts 45°
2026-04-24 21:39 49.81399 4.64083 38215 ft 464 kts 45°
2026-04-24 21:40 49.85819 4.71264 38224 ft 463 kts 45°
2026-04-24 21:40 49.90287 4.78538 38235 ft 462 kts 45°
2026-04-24 21:41 49.94680 4.85714 38231 ft 462 kts 45°
2026-04-24 21:41 49.99093 4.92952 38229 ft 461 kts 45°
2026-04-24 21:42 50.03506 5.00184 38227 ft 461 kts 45°
2026-04-24 21:42 50.07917 5.07436 38214 ft 462 kts 45°
2026-04-24 21:43 50.12333 5.14715 38213 ft 462 kts 45°
2026-04-24 21:43 50.16748 5.22024 38214 ft 463 kts 45°
2026-04-24 21:44 50.21159 5.29361 38216 ft 464 kts 45°
2026-04-24 21:44 50.25576 5.36710 38219 ft 464 kts 45°
2026-04-24 21:45 50.29984 5.44078 38240 ft 464 kts 45°
2026-04-24 21:45 50.34397 5.51472 38234 ft 465 kts 45°
2026-04-24 21:46 50.38811 5.58879 38219 ft 466 kts 45°
2026-04-24 21:46 50.43226 5.66319 38217 ft 466 kts 45°
2026-04-24 21:47 50.47642 5.73788 38221 ft 467 kts 45°
2026-04-24 21:47 50.52061 5.81271 37511 ft 467 kts 45°
2026-04-24 21:47 50.54326 5.84930 36708 ft 466 kts 38°
2026-04-24 21:48 50.56971 5.87824 35941 ft 463 kts 28°
2026-04-24 21:48 50.59727 5.90435 34828 ft 464 kts 28°
2026-04-24 21:48 50.62508 5.93072 33565 ft 468 kts 28°
2026-04-24 21:48 50.65304 5.95731 32186 ft 471 kts 28°
2026-04-24 21:49 50.68120 5.98418 30775 ft 474 kts 28°
2026-04-24 21:49 50.70949 6.01127 29112 ft 478 kts 28°
2026-04-24 21:49 50.73779 6.03846 28233 ft 466 kts 28°
2026-04-24 21:49 50.76461 6.06443 28089 ft 439 kts 28°
2026-04-24 21:50 50.78988 6.08896 27949 ft 415 kts 28°
2026-04-24 21:50 50.81403 6.11235 27554 ft 401 kts 27°
2026-04-24 21:50 50.83757 6.13491 27022 ft 392 kts 27°
2026-04-24 21:50 50.86068 6.15698 26484 ft 383 kts 27°
2026-04-24 21:51 50.88324 6.17859 25964 ft 375 kts 27°
2026-04-24 21:51 50.90503 6.19955 25463 ft 367 kts 27°
2026-04-24 21:51 50.92661 6.22038 24967 ft 360 kts 27°
2026-04-24 21:51 50.94776 6.24089 24456 ft 353 kts 27°
2026-04-24 21:52 50.96899 6.26156 23248 ft 368 kts 27°
2026-04-24 21:52 50.99123 6.28317 21916 ft 381 kts 28°
2026-04-24 21:52 51.01417 6.30553 20588 ft 393 kts 28°
2026-04-24 21:52 51.03782 6.32859 19237 ft 404 kts 29°
2026-04-24 21:53 51.06199 6.35264 17031 ft 423 kts 32°
2026-04-24 21:53 51.08630 6.38115 14874 ft 443 kts 37°
2026-04-24 21:53 51.11000 6.41129 13712 ft 430 kts 38°
2026-04-24 21:53 51.13180 6.44305 12497 ft 419 kts 45°
2026-04-24 21:54 51.15084 6.47713 11506 ft 405 kts 49°
2026-04-24 21:54 51.16696 6.51301 10578 ft 391 kts 56°
2026-04-24 21:54 51.18169 6.54859 8849 ft 383 kts 55°
2026-04-24 21:54 51.19703 6.58523 7078 ft 396 kts 54°
2026-04-24 21:55 51.21254 6.62029 5340 ft 389 kts 49°
2026-04-24 21:55 51.22928 6.65211 4018 ft 363 kts 46°
2026-04-24 21:55 51.24593 6.68211 1858 ft 367 kts 47°
2026-04-24 21:55 51.26192 6.71330 857 ft 347 kts 52°